ROMMA est une association bénévole à but non lucratif. Votre soutien est indispensable : ADHERER à ROMMA ou FAIRE un DON

Engins - (38, Isère)

Vercors (906 m)   Longitude: 05° 37' E   Latitude: 45° 11' N Station partenaire n°139
 

Détail journalier du     <<     >>

Température Precipitation Humidité Vent Dir Rafale Dir. rafale Ensol.
Heure (°C) (mm) (%) (km/h) (km/h) (min)
01:00 9.70843O10OSO0
02:00 8.90903N11N0
03:00 8.10913OSO8OSO0
04:00 7.70914SSO11SSE0
05:00 7.80906O16SSO0
06:00 8.30905SO15SSE0
07:00 8.20904SSO15O0
08:00 8.20894SSO16SSE0
09:00 8.80895SSO15SSO35
10:00 10.70835S15SSE30
11:00 13.60815ENE18SE50
12:00 13.90813ENE11ENE60
13:00 13.10844E13E35
14:00 14.60763ENE16NE25
15:00 13.90793E15E0
16:00 13.30822E8E0
17:00 12.40851ENE10E0
18:00 11.80893N8SSE0
19:00 10.70.4921O6O0
20:00 10.22.8915O26SSE0
21:00 10.40.4937S23SO0
22:00 10.21954NNE13ONO0
23:00 8.61.89112N32NNE0
minuit 8.62.2909N31NNE0

Graphique du 06-10-2019

 

Serveur OMMA